DateTimeUTC,F1_A11,F1_S11,BsB_S11,BsG_S11,BsR_S11,BbsB_S11,BbsG_S11,BbsR_S11,BaB_A11,BaG_A11,BaR_A11,Tu_S11,T_S11,Uu_S11,U_S11,P_S11,T1_A11
2021-04-28T07:00:00Z,00040200,20000000,,,,,,,-000.37,-000.31,0000.19,17.9,24.9,02.6,01.7,0682.0,31.1
2021-04-28T07:01:00Z,00040200,20000000,,,,,,,0000.25,-000.13,-000.23,17.9,24.9,02.6,01.7,0682.0,31.1
2021-04-28T07:02:00Z,00040200,20000000,,,,,,,-000.28,0000.08,-000.04,17.9,24.9,02.6,01.7,0682.0,31.1
2021-04-28T07:03:00Z,00040200,60000000,,,,,,,0000.23,0000.20,0000.49,17.9,25.0,02.6,01.7,0682.0,31.1
2021-04-28T07:04:00Z,00040200,40000000,0001.04,0000.53,0000.45,0000.11,0000.23,0000.16,0000.26,0000.59,0000.07,18.0,24.8,02.5,01.7,0682.9,31.1
2021-04-28T07:05:00Z,00040200,00000000,0001.57,0000.46,0000.25,-000.07,-000.05,-000.17,0000.80,0000.34,0000.44,18.1,24.7,02.6,01.7,0682.9,31.1
2021-04-28T07:06:00Z,00040200,00000000,0001.56,0000.64,0000.35,0000.31,0000.11,0000.20,0000.45,0000.29,0000.01,18.1,24.8,02.6,01.7,0683.0,31.1
2021-04-28T07:07:00Z,00040200,00000000,0001.31,0000.70,0000.37,0000.14,0000.17,-000.11,0000.58,0000.63,0000.34,18.1,24.8,02.7,01.8,0683.0,31.1
2021-04-28T07:08:00Z,00040200,00000000,0000.77,0000.67,0000.76,0000.66,0000.22,0000.16,0000.36,0000.20,0000.28,18.1,24.7,02.7,01.8,0683.0,31.1
2021-04-28T07:09:00Z,00040200,00000000,0001.57,0000.42,0000.41,0000.26,0000.32,-000.08,0000.51,0000.32,0000.40,18.1,24.7,02.7,01.8,0683.0,31.1
2021-04-28T07:10:00Z,00040200,00000000,0000.92,0000.55,0000.45,0000.15,0000.15,0000.37,0000.29,0000.85,0000.49,18.1,24.8,02.7,01.8,0683.0,31.1
2021-04-28T07:11:00Z,00040200,00000000,0000.94,0000.63,-000.01,-000.20,0000.21,0000.19,0000.03,-000.17,0000.10,18.1,24.7,02.8,01.8,0683.0,31.1
2021-04-28T07:12:00Z,00040200,00000000,0001.01,0000.72,0000.59,-000.10,0000.41,-000.18,0000.34,0000.51,-000.04,18.1,24.7,02.7,01.8,0683.0,31.1
2021-04-28T07:13:00Z,00040200,00000000,0001.49,0000.88,0000.60,-000.16,0000.23,-000.27,0000.28,-000.38,0000.12,18.1,24.7,02.7,01.8,0683.0,31.1
2021-04-28T07:14:00Z,00040200,00000000,0001.22,0000.83,0000.53,-000.03,0000.17,0000.19,0000.21,0000.47,0000.55,18.1,24.7,02.6,01.7,0683.0,31.1
2021-04-28T07:15:00Z,00040200,00000000,0001.17,0000.57,0000.69,0000.53,0000.35,0000.05,0000.37,0000.20,-000.15,18.1,24.7,02.5,01.7,0683.0,31.1
2021-04-28T07:16:00Z,00040200,00000000,0001.12,0000.66,0000.37,0000.12,0000.12,0000.50,0000.29,0000.38,0000.29,18.1,24.7,02.5,01.7,0683.0,31.1
2021-04-28T07:17:00Z,00040200,00000000,0001.08,0000.54,0000.53,-000.17,0000.12,0000.35,0000.34,0000.03,0000.19,18.1,24.7,02.4,01.6,0683.0,31.1
2021-04-28T07:18:00Z,00040200,00000000,0001.35,0001.02,0000.44,-000.45,0000.26,0000.31,0000.16,0000.51,0000.11,18.1,24.7,02.6,01.7,0683.0,31.1
2021-04-28T07:19:00Z,00040200,00000000,0001.64,0000.64,0000.49,-000.07,0000.34,0000.35,0000.24,0000.30,0000.34,18.1,24.7,02.5,01.6,0683.0,31.1
2021-04-28T07:20:00Z,00040200,00000000,0000.90,0000.63,0000.49,-000.32,0000.04,-000.00,0000.69,0000.40,0000.18,18.1,24.7,02.6,01.7,0683.0,31.1
2021-04-28T07:21:00Z,00040200,00000000,0001.13,0000.86,0000.90,0000.32,0000.53,0000.27,0000.15,0000.46,0000.29,18.1,24.7,02.5,01.7,0683.0,31.1
2021-04-28T07:22:00Z,00040200,00000000,0001.29,0000.71,0000.41,0000.50,0000.18,-000.05,0000.50,0000.05,0000.37,18.1,24.7,02.6,01.7,0683.0,31.1
2021-04-28T07:23:00Z,00040200,00000000,0001.14,0000.77,0000.41,0000.41,0000.28,0000.14,0000.37,0000.18,0000.02,18.2,24.7,02.5,01.7,0683.0,31.1
2021-04-28T07:24:00Z,00040200,00000000,0001.07,0000.65,0000.49,0000.36,0000.22,0000.30,0000.16,0000.48,0000.10,18.1,24.7,02.5,01.7,0683.0,31.1
2021-04-28T07:25:00Z,00040200,00000000,0000.60,0000.76,0000.05,0000.10,0000.24,-000.02,0000.58,0000.37,0000.41,18.1,24.7,02.5,01.7,0683.0,31.1
2021-04-28T07:26:00Z,00040200,00000000,0001.24,0000.29,0000.35,0000.17,0000.15,0000.20,0000.59,0000.54,0000.34,18.1,24.7,02.5,01.7,0683.0,31.1
2021-04-28T07:27:00Z,00040200,00000000,0001.42,0000.61,0000.44,0000.35,0000.40,0000.31,0000.20,0000.43,0000.24,18.2,24.7,02.5,01.7,0683.0,31.2
2021-04-28T07:28:00Z,00040200,00000000,0001.49,0000.46,0000.38,0000.22,0000.22,0000.08,0000.43,0000.06,0000.30,18.2,24.7,02.5,01.7,0683.0,31.1
2021-04-28T07:29:00Z,00040200,00000000,0001.73,0000.58,0000.29,-000.44,0000.54,0000.02,0000.23,-000.13,0000.18,18.2,24.7,02.5,01.6,0683.0,31.1
2021-04-28T07:30:00Z,00040200,00000000,0001.30,0000.72,0000.37,0000.30,0000.47,0000.09,0000.27,0001.04,0000.13,18.2,24.7,02.5,01.7,0683.0,31.1
2021-04-28T07:31:00Z,00040200,00000000,0001.37,0000.36,0000.57,0000.24,0000.26,0000.24,0000.25,0000.00,0000.44,18.2,24.7,02.5,01.7,0683.0,31.1
2021-04-28T07:32:00Z,00040200,00000000,0001.63,0000.60,0000.57,-000.11,0000.52,0000.37,0000.48,-000.05,0000.06,18.2,24.7,02.5,01.6,0683.1,31.1
2021-04-28T07:33:00Z,00040200,00000000,0001.29,0000.68,0000.54,-000.15,0000.26,0000.27,0000.57,0000.70,0000.10,18.2,24.7,02.5,01.7,0683.1,31.1
2021-04-28T07:34:00Z,00040200,00000000,0001.02,0000.51,0000.20,0000.04,0000.42,0000.17,0000.06,0000.34,0000.48,18.2,24.7,02.5,01.7,0683.1,31.1
2021-04-28T07:35:00Z,00040200,00000000,0001.69,0000.72,0000.49,0000.51,0000.18,-000.05,0000.77,0000.51,0000.07,18.2,24.8,02.5,01.7,0683.1,31.1
2021-04-28T07:36:00Z,00040200,00000000,0001.21,0000.27,0000.55,0000.00,0000.33,-000.10,0000.07,0000.21,0000.27,18.2,24.8,02.5,01.7,0683.1,31.1
2021-04-28T07:37:00Z,00040200,00000000,0001.39,0000.52,0000.49,-000.06,0000.39,0000.09,0000.57,0000.15,0000.53,18.2,24.8,02.5,01.7,0683.1,31.2
2021-04-28T07:38:00Z,00040200,00000000,0001.04,0000.64,0000.64,0000.19,0000.13,0000.04,-000.06,0000.33,0000.12,18.2,24.7,02.6,01.7,0683.1,31.1
2021-04-28T07:39:00Z,00040200,00000000,0001.29,0000.65,0000.56,0000.16,0000.45,0000.22,0000.47,0000.19,0000.20,18.2,24.7,02.4,01.6,0683.1,31.1
2021-04-28T07:40:00Z,00040200,00000000,0001.07,0000.65,0000.40,0000.21,0000.23,0000.10,0000.67,0000.40,0000.40,18.2,24.8,02.5,01.7,0683.1,31.1
2021-04-28T07:41:00Z,00040200,00000000,0001.00,0000.62,0000.15,-000.12,0000.37,-000.04,0000.13,0000.70,0000.18,18.2,24.8,02.5,01.7,0683.1,31.1
2021-04-28T07:42:00Z,00040200,00000000,0001.64,0000.79,0000.38,0000.00,0000.16,0000.17,0000.29,0000.39,0000.31,18.2,24.8,02.6,01.7,0683.1,31.1
2021-04-28T07:43:00Z,00040200,00000000,0000.39,0000.43,0000.60,0000.03,0000.20,0000.10,0000.22,-000.06,0000.04,18.2,24.8,02.5,01.7,0683.1,31.1
2021-04-28T07:44:00Z,00040200,00000000,0001.14,0000.58,0000.48,-000.06,0000.24,0000.25,0000.62,0000.35,0000.20,18.2,24.8,02.5,01.7,0683.1,31.1
2021-04-28T07:45:00Z,00040200,00000000,0000.85,0000.44,0000.18,0000.20,0000.29,0000.28,0000.23,0000.28,0000.34,18.2,24.8,02.5,01.6,0683.1,31.1
2021-04-28T07:46:00Z,00040200,00000000,0000.98,0000.67,0000.56,-000.18,0000.14,0000.07,0000.07,0000.29,-000.16,18.2,24.8,02.4,01.6,0683.1,31.2
2021-04-28T07:47:00Z,00040200,00000000,0000.94,0000.66,0000.29,0000.13,0000.14,0000.11,0000.23,0000.27,0000.29,18.2,24.8,02.4,01.6,0683.1,31.2
2021-04-28T07:48:00Z,00040200,00000000,0001.18,0000.73,0000.34,0000.15,0000.23,0000.04,0000.80,0000.43,0000.70,18.2,24.8,02.4,01.6,0683.1,31.1
2021-04-28T07:49:00Z,00040200,00000000,0001.20,0000.87,0000.42,-000.04,0000.34,0000.11,0000.26,-000.02,-000.17,18.2,24.8,02.4,01.6,0683.1,31.1
2021-04-28T07:50:00Z,00040200,00000000,0001.44,0000.59,0000.32,-000.11,0000.26,-000.05,0000.04,0000.09,-000.05,18.2,24.8,02.3,01.6,0683.1,31.1
2021-04-28T07:51:00Z,00040200,00000000,0000.54,0000.56,0000.33,-000.14,0000.41,0000.03,0000.20,0000.54,0000.29,18.2,24.8,02.2,01.5,0683.1,31.1
2021-04-28T07:52:00Z,00040200,00000000,0001.22,0000.31,0000.29,-000.29,0000.19,0000.16,0000.29,0000.35,0000.25,18.2,24.8,02.3,01.5,0683.1,31.1
2021-04-28T07:53:00Z,00040200,00000000,0000.32,0000.86,0000.60,0000.32,0000.21,0000.15,0000.46,-000.12,-000.10,18.2,24.8,02.2,01.5,0683.1,31.1
2021-04-28T07:54:00Z,00040200,00000000,0000.96,0000.66,0000.69,-000.19,0000.09,0000.10,0000.07,0000.45,0000.22,18.2,24.8,02.2,01.5,0683.1,31.1
2021-04-28T07:55:00Z,00040200,00000000,0000.82,0000.50,0000.40,0000.21,0000.25,0000.14,0000.16,0000.14,0000.61,18.2,24.8,02.2,01.5,0683.1,31.1
2021-04-28T07:56:00Z,00040200,00000000,0001.05,0000.56,0000.52,-000.26,0000.00,0000.33,0000.62,0000.42,0000.19,18.2,24.8,02.1,01.4,0683.1,31.1
2021-04-28T07:57:00Z,00040200,40000000,,,,,,,0000.23,0000.00,0000.15,18.3,24.8,01.6,01.1,0682.9,31.1
2021-04-28T07:58:00Z,00040200,60000000,,,,,,,-000.21,0000.04,-000.27,18.0,24.9,02.0,01.3,0682.1,31.1
2021-04-28T07:59:00Z,00040200,20000000,,,,,,,-000.40,-000.38,-000.15,18.0,25.0,02.0,01.3,0682.1,31.1
